Location: Derby
(52.9213°N, 1.4761°W)
Time: 14:56:54
(UTC+01:00)

Altair - All Passes

Search period start: 18 May 2025 00:00
Search period end: 28 May 2025 00:00
Orbit: 1501 x 1682 km, 47.2° (Epoch: 18 May)

Date Brightness Start Highest point End Pass type
(mag) Time Alt. Az. Time Alt. Az. Time Alt. Az.
18 May - 07:49:28 10° S 07:57:16 27° SE 08:05:11 10° E daylight
18 May - 09:50:55 10° SW 10:00:30 54° SSE 10:10:14 10° E daylight
18 May - 11:54:42 10° W 12:04:39 64° S 12:14:37 10° ESE daylight
18 May - 13:59:09 10° W 14:08:39 47° SSW 14:18:04 10° SE daylight
18 May - 16:04:44 10° W 16:11:34 21° SW 16:18:20 10° S daylight
19 May - 07:24:40 10° S 07:32:10 25° SE 07:39:48 10° E daylight
19 May - 09:25:48 10° SW 09:35:18 52° SSE 09:45:00 10° E daylight
19 May - 11:29:29 10° W 11:39:25 65° S 11:49:24 10° ESE daylight
19 May - 13:33:54 10° W 13:43:28 49° SSW 13:53:00 10° SE daylight
19 May - 15:39:17 10° W 15:46:29 23° SW 15:53:39 10° S daylight
20 May - 06:59:54 10° S 07:07:04 23° SE 07:14:24 10° E daylight
20 May - 09:00:42 10° SW 09:10:07 50° SSE 09:19:44 10° E daylight
20 May - 11:04:17 10° WSW 11:14:11 65° S 11:24:11 10° ESE daylight
20 May - 13:08:39 10° W 13:18:18 51° SSW 13:27:53 10° SE daylight
20 May - 15:13:53 10° W 15:21:25 24° SW 15:28:53 10° S daylight
21 May - 06:35:11 10° S 06:42:00 22° SE 06:48:58 10° E daylight
21 May - 08:35:37 10° SW 08:44:56 48° SSE 08:54:28 10° E daylight
21 May - 10:39:05 10° WSW 10:48:57 65° S 10:58:57 10° E daylight
21 May - 12:43:25 10° W 12:53:05 53° SSW 13:02:46 10° SE daylight
21 May - 14:48:30 10° W 14:56:19 26° SW 15:04:05 10° S daylight
22 May - 06:10:31 10° S 06:16:56 20° SE 06:23:28 10° E daylight
22 May - 08:10:34 10° SW 08:19:46 46° SSE 08:29:12 10° E daylight
22 May - 10:13:53 10° WSW 10:23:43 64° S 10:33:43 10° E daylight
22 May - 12:18:10 10° W 12:27:54 54° SSW 12:37:37 10° SE daylight
22 May - 14:23:08 10° W 14:31:12 28° SW 14:39:15 10° S daylight
23 May - 05:45:56 10° SSE 05:51:53 18° SE 05:57:57 10° E daylight
23 May - 07:45:31 10° SW 07:54:36 44° SSE 08:03:56 10° E daylight
23 May - 09:48:41 10° WSW 09:58:30 64° S 10:08:29 10° E daylight
23 May - 11:52:56 10° W 12:02:41 56° SSW 12:12:28 10° SE daylight
23 May - 13:57:48 10° W 14:06:06 30° SW 14:14:21 10° SSE daylight
24 May - 05:21:25 10° SSE 05:26:50 16° SE 05:32:21 10° E daylight
24 May - 07:20:29 10° SW 07:29:26 42° SSE 07:38:39 10° E daylight
24 May - 09:23:31 10° WSW 09:33:17 63° S 09:43:14 10° E daylight
24 May - 11:27:43 10° W 11:37:28 57° SSW 11:47:19 10° ESE daylight
24 May - 13:32:29 10° W 13:40:58 32° SW 13:49:27 10° SSE daylight
25 May - 04:57:01 10° SSE 05:01:48 15° SE 05:06:40 10° E daylight
25 May - 06:55:29 10° SSW 07:04:17 40° SSE 07:13:22 10° E daylight
25 May - 08:58:20 10° WSW 09:08:03 62° S 09:18:01 10° E daylight
25 May - 11:02:29 10° W 11:12:16 59° SSW 11:22:08 10° ESE daylight
25 May - 13:07:11 10° W 13:15:51 34° SW 13:24:30 10° SSE daylight
25 May - 15:16:30 10° WSW 15:18:04 10° WSW 15:19:40 10° SW daylight
26 May - 04:32:46 10° SSE 04:36:47 13° SE 04:40:50 10° E daylight
26 May - 06:30:30 10° SSW 06:39:09 38° SE 06:48:04 10° E daylight
26 May - 08:33:10 10° WSW 08:42:50 61° S 08:52:46 10° E daylight
26 May - 10:37:16 10° W 10:47:03 60° SSW 10:56:57 10° ESE daylight
26 May - 12:41:53 10° W 12:50:42 36° SW 12:59:32 10° SSE daylight
26 May - 14:49:49 10° WSW 14:53:03 12° WSW 14:56:19 10° SW daylight
27 May - 04:08:48 10° SE 04:11:46 12° ESE 04:14:44 10° ESE visible
27 May - 06:05:32 10° SSW 06:14:01 36° SE 06:22:46 10° E daylight
27 May - 08:08:01 10° WSW 08:17:37 60° SSE 08:27:30 10° E daylight
27 May - 10:12:03 10° W 10:21:49 61° SSW 10:31:45 10° ESE daylight
27 May - 12:16:37 10° W 12:25:33 38° SW 12:34:32 10° SSE daylight
27 May - 14:23:46 10° W 14:28:01 13° SW 14:32:17 10° SSW daylight
